Time_in_sec,Mx,My,Mz
1323445254.04850245,-0.32698974,0.48898348,-0.81463772
1323445254.10063696,-0.32774615,0.48939496,-0.81875843
1323445254.14847517,-0.32792312,0.48923844,-0.81507277
1323445254.18949604,-0.32801744,0.48935330,-0.81444186
1323445254.25361919,-0.32918039,0.49140885,-0.81413800
1323445254.30457258,-0.32658502,0.49090013,-0.81411970
1323445254.35361195,-0.32909107,0.48922759,-0.81284368
1323445254.40054035,-0.32867169,0.48996246,-0.81448197
1323445254.45272613,-0.32835042,0.48937008,-0.81573403
1323445254.50055099,-0.32767403,0.49068046,-0.81506944
1323445254.55079079,-0.32833987,0.48932138,-0.81101984
1323445254.60163927,-0.32918060,0.48948511,-0.81437910
1323445254.64963937,-0.32856008,0.48948357,-0.81485462
1323445254.70134807,-0.32844400,0.48958170,-0.81281078
1323445254.75364470,-0.32899740,0.48997784,-0.81564641
1323445254.80164957,-0.32849911,0.48718750,-0.81407064
1323445254.85276008,-0.32816869,0.48849380,-0.81266057
1323445254.90167737,-0.32865259,0.48935762,-0.81422186
1323445254.95022297,-0.32651946,0.48896387,-0.81321061
1323445255.00164843,-0.32677656,0.48956737,-0.81310159
1323445255.04963946,-0.32891548,0.48897702,-0.81206799
1323445255.09921074,-0.32687998,0.48992443,-0.81260026
1323445255.15249634,-0.32691321,0.48870510,-0.81106472
1323445255.19364667,-0.32781348,0.48921755,-0.81315583
1323445255.25256395,-0.32787192,0.49136958,-0.81164575
1323445255.30163836,-0.32711312,0.49220666,-0.81186491
1323445255.35007191,-0.32813603,0.48822376,-0.80985439
1323445255.40050077,-0.32901248,0.48945311,-0.81143975
1323445255.44952631,-0.32822046,0.49150953,-0.81319445
1323445255.50207734,-0.32622391,0.48907447,-0.81255823
1323445255.54951334,-0.32814598,0.48740736,-0.81239682
1323445255.60150671,-0.32745665,0.48991764,-0.81135786
1323445255.64053321,-0.32764417,0.48980978,-0.81238645
1323445255.69363761,-0.32782805,0.49136120,-0.81087893
1323445255.74993014,-0.32820949,0.49316740,-0.81053054
1323445255.80154514,-0.32721975,0.49025655,-0.80943650
1323445255.85364819,-0.32814324,0.48918703,-0.80986160
1323445255.90196490,-0.32748127,0.49028304,-0.81174397
1323445255.94966149,-0.32768911,0.49015573,-0.81086278
1323445256.00156116,-0.32749078,0.48881868,-0.80982327
1323445256.05253744,-0.32763794,0.49014598,-0.80996817
1323445256.10155225,-0.32649091,0.49100244,-0.81245923
1323445256.15381169,-0.32789436,0.48870534,-0.81009936
1323445256.19249058,-0.32677555,0.49040881,-0.81298012
1323445256.25263929,-0.32679975,0.49012628,-0.80890304
1323445256.29940820,-0.32686171,0.49158090,-0.80980849
1323445256.35252666,-0.32663593,0.49047911,-0.80825967
1323445256.40063095,-0.32720792,0.48965311,-0.80930418
1323445256.44954133,-0.32599151,0.49001542,-0.81064147
1323445256.50063300,-0.32692930,0.49183425,-0.81096047
1323445256.54966784,-0.32736543,0.48845744,-0.80994123
1323445256.60054326,-0.32743049,0.48856673,-0.80879909
1323445256.64865780,-0.32825938,0.49026793,-0.80949354
1323445256.68964672,-0.32923123,0.48980880,-0.81068993
1323445256.74964190,-0.32672995,0.49133867,-0.80979955
1323445256.80054069,-0.32701948,0.48964053,-0.80827469
1323445256.85255241,-0.32780755,0.48880902,-0.80856669
1323445256.90053701,-0.32652032,0.49122518,-0.81067902
1323445256.94953656,-0.32599530,0.49071419,-0.80835366
1323445257.00068784,-0.32813302,0.49074814,-0.80949003
1323445257.05251813,-0.32809207,0.48917729,-0.80896705
1323445257.09950161,-0.32857326,0.48967987,-0.81052560
1323445257.14851499,-0.32843336,0.49049488,-0.80797601
1323445257.20060778,-0.32667518,0.49084729,-0.80890137
1323445257.24956870,-0.32824665,0.48954409,-0.80936027
1323445257.30067587,-0.32618371,0.49072677,-0.80938315
1323445257.35038924,-0.32904959,0.48797068,-0.80773699
1323445257.40048671,-0.32734150,0.49013618,-0.80931497
1323445257.44954324,-0.32682827,0.49022862,-0.80712193
1323445257.50156903,-0.32666698,0.49072552,-0.80877268
1323445257.55355191,-0.32885283,0.48879817,-0.80645829
1323445257.60155940,-0.32768399,0.48868859,-0.80868644
1323445257.65355754,-0.32794559,0.48989412,-0.80858195
1323445257.69264460,-0.32843319,0.49027771,-0.81026745
1323445257.75025344,-0.32807523,0.49278110,-0.80822748
1323445257.80051708,-0.32758325,0.49083364,-0.80665803
1323445257.84965110,-0.32788891,0.49012378,-0.80756140
1323445257.90233278,-0.32782003,0.49145657,-0.80845886
1323445257.95025444,-0.32708916,0.48939002,-0.80725765
1323445258.00138593,-0.32646403,0.48974830,-0.80760813
1323445258.05252671,-0.32776266,0.48964214,-0.80767846
1323445258.10128808,-0.32640347,0.49024102,-0.80875480
1323445258.15252376,-0.32834366,0.49002019,-0.80873203
1323445258.19351339,-0.32656115,0.48926252,-0.80710042
1323445258.24965239,-0.32709268,0.49083349,-0.80714071
1323445258.30010080,-0.32806331,0.49313956,-0.80797458
1323445258.34964466,-0.32831931,0.48891011,-0.80617511
1323445258.40165067,-0.32800436,0.48916057,-0.80743349
1323445258.45252824,-0.32823834,0.49038416,-0.80911106
1323445258.50052953,-0.32708338,0.49037412,-0.80930251
1323445258.55248213,-0.32887387,0.48868194,-0.80684078
1323445258.60050750,-0.32927707,0.49027514,-0.80916715
1323445258.64910316,-0.32796291,0.49025813,-0.80884027
1323445258.69248581,-0.32634032,0.48941070,-0.81001931
1323445258.75262523,-0.32649279,0.49242228,-0.81004906
1323445258.80055571,-0.32786748,0.49194658,-0.80922925
1323445258.85251594,-0.32817996,0.48941115,-0.80820918
1323445258.90062404,-0.32861999,0.49026662,-0.80900371
1323445258.94953561,-0.32752711,0.49074936,-0.81022120
1323445259.00057149,-0.32791889,0.49003258,-0.81036490
1323445259.04955268,-0.32808757,0.48857525,-0.80896252
1323445259.10155559,-0.32704192,0.49147168,-0.81070930
1323445259.14965105,-0.32672468,0.48965439,-0.80991471
1323445259.19365764,-0.32651582,0.49062315,-0.81067449
1323445259.25252891,-0.32767159,0.49171543,-0.81036335
1323445259.30065370,-0.32728723,0.49147174,-0.81046796
1323445259.34970140,-0.32785517,0.48951617,-0.80704570
1323445259.40048885,-0.32751989,0.48978612,-0.81021392
1323445259.44952130,-0.32873875,0.49052972,-0.81105030
1323445259.50168610,-0.32681048,0.49039215,-0.81132591
1323445259.54953361,-0.32792929,0.48868865,-0.80844510
1323445259.60151768,-0.32856685,0.48979890,-0.81039870
1323445259.65254021,-0.32824194,0.49086580,-0.80911463
1323445259.68966174,-0.32618263,0.49038920,-0.81167364
1323445259.74954891,-0.32677370,0.49230888,-0.81044585
1323445259.80064917,-0.32873145,0.49052835,-0.81092244
1323445259.84963536,-0.32808736,0.49049896,-0.80872142
1323445259.89854240,-0.32768631,0.49075636,-0.81073952
1323445259.94955587,-0.32717121,0.48942897,-0.81095660
1323445260.00239420,-0.32762972,0.49002418,-0.80983949
1323445260.05657220,-0.32768309,0.48856819,-0.80868554
1323445260.10065198,-0.32709321,0.49051958,-0.81172442
1323445260.15249276,-0.32690209,0.49014577,-0.81069219
1323445260.20051646,-0.32854030,0.49015456,-0.80989027
1323445260.25256157,-0.32913509,0.49159402,-0.80878657
1323445260.30452752,-0.32751068,0.49050575,-0.80996376
1323445260.35355425,-0.32908255,0.48749602,-0.80837238
1323445260.40054154,-0.32741648,0.48942906,-0.81071526
1323445260.45250750,-0.32652071,0.48951861,-0.80862868
1323445260.50154209,-0.32625681,0.49074069,-0.81066114
1323445260.55040097,-0.32912999,0.48798600,-0.80914277
1323445260.60050893,-0.32632029,0.48868546,-0.80975825
1323445260.65248847,-0.32737714,0.49002272,-0.80995303
1323445260.70230484,-0.32699791,0.49124616,-0.81223392
1323445260.74950528,-0.32744581,0.49061364,-0.80881453
1323445260.80087876,-0.32769039,0.48856959,-0.80881333
1323445260.85251117,-0.32843778,0.48991787,-0.81039250
1323445260.90063262,-0.32725349,0.49086413,-0.80995226
1323445260.95025611,-0.32706419,0.48859027,-0.81145436
1323445261.00170922,-0.32652211,0.49146599,-0.81068081
1323445261.04964662,-0.32731774,0.48989117,-0.80892974
1323445261.09959364,-0.32807055,0.49196193,-0.81051433
1323445261.14965081,-0.32820532,0.48967978,-0.81088763
1323445261.20164871,-0.32641229,0.49122792,-0.81105524
1323445261.25276184,-0.32681599,0.49015272,-0.81145185
1323445261.30164599,-0.32620278,0.49015257,-0.81205523
1323445261.35013247,-0.32723638,0.48857641,-0.80993503
1323445261.40202141,-0.32786191,0.49100694,-0.81151521
1323445261.44952202,-0.32708049,0.48979574,-0.81159121
1323445261.50201392,-0.32709301,0.49244329,-0.81148332
1323445261.54966044,-0.32648781,0.48785239,-0.81052583
1323445261.60163856,-0.32814294,0.48993170,-0.81203246
1323445261.65352392,-0.32708040,0.49075758,-0.81147063
1323445261.70064425,-0.32736492,0.49112585,-0.81187099
1323445261.74999547,-0.32749578,0.49124768,-0.81187904
1323445261.80051208,-0.32830316,0.48909727,-0.81267226
1323445261.84954739,-0.32837912,0.48968956,-0.81166154
1323445261.89897752,-0.32611763,0.49145892,-0.81040382
1323445261.94964600,-0.32759941,0.48968104,-0.81161880
1323445262.00063586,-0.32674631,0.49040323,-0.81246895
1323445262.05253196,-0.32872424,0.48956507,-0.81091523
1323445262.10062885,-0.32708871,0.48991755,-0.81171989
1323445262.15250683,-0.32897493,0.49028757,-0.81067932
1323445262.20153141,-0.32717741,0.49123368,-0.81084239
1323445262.25367665,-0.32694983,0.48989108,-0.80929178
1323445262.30174327,-0.32921642,0.48958886,-0.81272572
1323445262.34970355,-0.32923430,0.48846349,-0.80864233
1323445262.40166879,-0.32622868,0.48893180,-0.81039196
1323445262.45253372,-0.32843778,0.48991787,-0.81039250
1323445262.50052810,-0.32707950,0.49063718,-0.81146973
1323445262.54970789,-0.32609171,0.48818430,-0.80808616
1323445262.60154700,-0.32681257,0.48988825,-0.80915684
1323445262.65364790,-0.32742089,0.49099293,-0.81059927
1323445262.69858050,-0.32573882,0.49097583,-0.81063443
1323445262.74964118,-0.32690769,0.48894450,-0.81093872
1323445262.80054545,-0.32924125,0.49017143,-0.81082046
1323445262.84860730,-0.32855141,0.48871386,-0.81026274
1323445262.90164042,-0.32750148,0.49122542,-0.80971360
1323445262.94855380,-0.32738355,0.48990372,-0.81007993
1323445263.00163174,-0.32709411,0.49063998,-0.81172532
1323445263.05250478,-0.32833117,0.48737264,-0.80883992
1323445263.10047388,-0.32571507,0.49073082,-0.81024927
1323445263.15258431,-0.32652143,0.48942187,-0.81092101
1323445263.20156646,-0.32699558,0.48917839,-0.81018090
1323445263.25252366,-0.32764003,0.48964208,-0.80779916
1323445263.30154204,-0.32731205,0.48991343,-0.81109518
1323445263.35042882,-0.32837892,0.48711792,-0.80743945
1323445263.40050530,-0.32690299,0.49026620,-0.81069314
1323445263.44964981,-0.32860807,0.49062505,-0.80875081
1323445263.50175428,-0.32722884,0.49049875,-0.80956614
1323445263.54965496,-0.32853726,0.48818356,-0.80554491
1323445263.60061407,-0.32942772,0.48855054,-0.80521411
1323445263.65250039,-0.32704693,0.48940530,-0.80878407
1323445263.70164967,-0.32649228,0.49059531,-0.80799788
1323445263.75029850,-0.32670742,0.49046940,-0.80724442
1323445263.80050516,-0.32792556,0.48916888,-0.80832094
1323445263.84965277,-0.32759988,0.48915350,-0.80715650
1323445263.90512824,-0.32749546,0.48963788,-0.80753642
1323445263.95261598,-0.32651988,0.49057725,-0.80621582
1323445264.00153995,-0.32731432,0.48962671,-0.80663472
1323445264.05015230,-0.32805592,0.48746377,-0.80627775
1323445264.10164142,-0.32770199,0.49109674,-0.80870461
1323445264.15261459,-0.32765943,0.48950222,-0.80588841
1323445264.20048809,-0.32599556,0.48996952,-0.80618280
1323445264.25252581,-0.32841873,0.49049211,-0.80772042
1323445264.30160904,-0.32680795,0.49024808,-0.80903178
1323445264.35358095,-0.32751405,0.48841575,-0.80574530
1323445264.40053463,-0.32596654,0.48804024,-0.80591273
1323445264.43947196,-0.32645112,0.49094817,-0.80723381
1323445264.50055242,-0.32684767,0.49008876,-0.80521119
1323445264.54997778,-0.32641765,0.48959589,-0.80454725
1323445264.60114813,-0.32674935,0.49119881,-0.80788887
1323445264.65366173,-0.32705161,0.49022451,-0.80649722
1323445264.69901061,-0.32668278,0.49010402,-0.80685830
1323445264.74965072,-0.32648695,0.49105191,-0.80558050
1323445264.80055237,-0.32727203,0.48846298,-0.81057310
1323445264.85249996,-0.32720912,0.48902884,-0.80713427
1323445264.90159655,-0.32719421,0.48977074,-0.80904949
1323445264.94988656,-0.32891554,0.49015602,-0.80965602
1323445265.00152063,-0.32636043,0.48917404,-0.81040090
1323445265.05363345,-0.33034801,0.48978823,-0.80756629
1323445265.10194898,-0.32676920,0.49170685,-0.81044126
1323445265.15251493,-0.32573262,0.48917112,-0.81074864
1323445265.20054722,-0.32640061,0.48966265,-0.81104350
1323445265.25375247,-0.32860529,0.48908481,-0.81116009
1323445265.30171585,-0.32759008,0.49136254,-0.81124806
1323445265.34977555,-0.32860750,0.48761907,-0.80911154
1323445265.38975692,-0.32686806,0.49028286,-0.81234735
1323445265.45259976,-0.32668784,0.49039212,-0.81144655
1323445265.50169706,-0.32616961,0.49255094,-0.81117880
1323445265.54958606,-0.33066252,0.49006528,-0.81077009
1323445265.60051394,-0.32664138,0.48906067,-0.81079763
1323445265.64915943,-0.32689196,0.49074504,-0.81044114
1323445265.70053220,-0.32741520,0.49101520,-0.81276470
1323445265.74958801,-0.32740790,0.49101380,-0.81263691
1323445265.80153298,-0.32774678,0.48908460,-0.81200475
1323445265.85250235,-0.32795924,0.48859745,-0.81124860
1323445265.90055108,-0.32711875,0.49100536,-0.81211144
1323445265.94949436,-0.32617444,0.49026740,-0.81154495
1323445266.00150824,-0.32690218,0.48918393,-0.81081277
1323445266.05248690,-0.32779452,0.48882988,-0.81060433
1323445266.10150552,-0.32789937,0.49113432,-0.81215513
1323445266.15248775,-0.32795542,0.49003956,-0.81100392
1323445266.20064139,-0.32645175,0.48967239,-0.81193805
1323445266.25354505,-0.32778981,0.49015158,-0.81035870
1323445266.30176425,-0.32589078,0.49001956,-0.81114548
1323445266.34954405,-0.32883236,0.48860046,-0.81065947
1323445266.40164614,-0.32803413,0.48885220,-0.81252837
1323445266.45251513,-0.32764766,0.49125329,-0.81226957
1323445266.50166130,-0.32733101,0.49030107,-0.81364667
1323445266.55033851,-0.32809088,0.48980156,-0.81113702
1323445266.60053205,-0.32775202,0.48958987,-0.81430161
1323445266.65261889,-0.32743183,0.48933506,-0.81326318
1323445266.70240474,-0.32706830,0.49089885,-0.81350917
1323445266.74964333,-0.32810178,0.49028459,-0.81126845
1323445266.80165815,-0.32861260,0.48908621,-0.81128788
1323445266.85255194,-0.32963851,0.48921522,-0.81109017
1323445266.90062189,-0.32828382,0.49041617,-0.81217104
1323445266.95019102,-0.32678676,0.49014714,-0.81094068
1323445267.00154257,-0.32899857,0.48935354,-0.81347644
1323445267.05364943,-0.32729664,0.48882836,-0.81095922
1323445267.10220051,-0.32701352,0.49040750,-0.81261098
1323445267.15252233,-0.32829034,0.48933530,-0.81241846
1323445267.20165277,-0.32644245,0.49135390,-0.81156737
1323445267.24942517,-0.32610217,0.48919484,-0.81267983
1323445267.30165052,-0.32792389,0.49246159,-0.81242067
1323445267.35004258,-0.32807559,0.48775464,-0.81112158
1323445267.40166116,-0.32944518,0.49030718,-0.81210643
1323445267.44953704,-0.32893449,0.49054369,-0.81220758
1323445267.50212693,-0.32647708,0.49208191,-0.81208396
1323445267.54963541,-0.32841778,0.48919266,-0.81013149
1323445267.60063243,-0.32923874,0.48788649,-0.81105882
1323445267.65252471,-0.32779875,0.49017662,-0.81277972
1323445267.70057726,-0.32615423,0.48932502,-0.81357533
1323445267.74994516,-0.32712886,0.49040613,-0.81236249
1323445267.80158424,-0.32808727,0.48931992,-0.81113338
1323445267.85324597,-0.32810742,0.48908329,-0.81151497
1323445267.90032935,-0.32769263,0.48945832,-0.81327832
1323445267.94963646,-0.32779154,0.48921335,-0.81277245
1323445268.00173688,-0.32714358,0.48944706,-0.81273866
1323445268.05255938,-0.32915705,0.48945731,-0.81170249
1323445268.10053658,-0.32842389,0.48981833,-0.81242925
1323445268.15247154,-0.33005840,0.49030733,-0.81150311
1323445268.20165181,-0.32749972,0.48884371,-0.81224430
1323445268.25263810,-0.32957074,0.48874471,-0.81222957
1323445268.30180383,-0.32700261,0.48992446,-0.81247956
1323445268.34967971,-0.32833999,0.48835954,-0.81114036
1323445268.40163612,-0.32902792,0.48839727,-0.81410819
1323445268.45347762,-0.32876900,0.48969385,-0.81168288
1323445268.50160074,-0.32702494,0.48822209,-0.81081265
1323445268.54962420,-0.32741109,0.48870662,-0.81070983
1323445268.60058904,-0.32891908,0.48945862,-0.81207162
1323445268.64872718,-0.32887059,0.48981011,-0.81117976
1323445268.70458889,-0.32734671,0.49064144,-0.81161177
1323445268.75255013,-0.32819161,0.48979741,-0.81063294
1323445268.80164433,-0.32834551,0.48812011,-0.81126636
1323445268.84050322,-0.32847753,0.48761767,-0.80910444
1323445268.90065265,-0.32701343,0.49136934,-0.81249046
1323445268.94949746,-0.32781973,0.49220127,-0.81062973
1323445269.00053525,-0.32763162,0.48930314,-0.80996186
1323445269.05306339,-0.32818618,0.48907498,-0.81062752
1323445269.10153365,-0.32816479,0.49089774,-0.81229532
1323445269.15348101,-0.32706949,0.49027458,-0.81133926
1323445269.20151448,-0.32710323,0.49088219,-0.81185496
1323445269.25278091,-0.32955882,0.48910314,-0.81197673
1323445269.30167747,-0.32535246,0.49027413,-0.81302863
1323445269.35035563,-0.32856143,0.48907647,-0.81039327
1323445269.40163589,-0.32885799,0.48812440,-0.81116706
1323445269.45365262,-0.32722586,0.49088222,-0.81173426
1323445269.50237560,-0.32766539,0.48991072,-0.81047755
1323445269.54965186,-0.32904553,0.48801658,-0.81219566
1323445269.60164309,-0.32603818,0.48942313,-0.81153148
1323445269.65248346,-0.32715559,0.49026763,-0.81057960
1323445269.70164704,-0.32745636,0.49066231,-0.81352872
1323445269.75021744,-0.32618904,0.49027017,-0.81180054
1323445269.80050492,-0.32715750,0.48954660,-0.81070191
1323445269.84965158,-0.32997179,0.48848730,-0.81021154
1323445269.90223265,-0.32730809,0.49113834,-0.81314188
1323445269.94995761,-0.32909036,0.48932436,-0.81055140
1323445270.00063133,-0.32965413,0.48837656,-0.81146723
1323445270.04302216,-0.32867947,0.48943633,-0.81014752
1323445270.10163808,-0.32902598,0.49125919,-0.81145334
1323445270.15008569,-0.32785377,0.49206418,-0.80897456
1323445270.19254732,-0.32819700,0.49051985,-0.81063837
1323445270.25364900,-0.32707399,0.49087662,-0.81134379
1323445270.30451918,-0.32904360,0.49087849,-0.80954081
1323445270.35353136,-0.32878110,0.48955259,-0.80964440
1323445270.40165401,-0.32904702,0.49114296,-0.81183583
1323445270.45404124,-0.32818687,0.49111909,-0.81038731
1323445270.50164485,-0.32869843,0.48982397,-0.81269908
1323445270.54994178,-0.32873273,0.48894221,-0.80887306
1323445270.60153031,-0.32817811,0.48799130,-0.81061935
1323445270.64959764,-0.32830131,0.49099734,-0.81013793
1323445270.68990803,-0.32667041,0.49098995,-0.81106770
1323445270.75354052,-0.32838082,0.49089223,-0.81154281
1323445270.80051804,-0.32905090,0.49087989,-0.80966860
1323445270.85248828,-0.33043021,0.49004436,-0.80897385
1323445270.90050292,-0.32656628,0.49072966,-0.80927676
1323445270.94977498,-0.32656637,0.48976779,-0.80939728
1323445271.00156403,-0.32715467,0.49014723,-0.81057864
1323445271.05355692,-0.33027205,0.48919591,-0.80857700
1323445271.10179734,-0.32691410,0.48882550,-0.81106561
1323445271.15379071,-0.32885879,0.48920667,-0.81104743
1323445271.20153999,-0.32902339,0.48993611,-0.81157118
1323445271.25251579,-0.32857877,0.48944047,-0.81065160
1323445271.30063963,-0.32773939,0.49004507,-0.81175643
1323445271.34967256,-0.32817620,0.48871237,-0.81049699
1323445271.40173316,-0.32765076,0.48990795,-0.81022197
1323445271.45262122,-0.32893729,0.48994306,-0.81233084
1323445271.49870825,-0.32865366,0.48969522,-0.81193137
1323445271.54912496,-0.32899994,0.48894644,-0.80901510
1323445271.60167980,-0.32895491,0.48956236,-0.81041831
1323445271.65368795,-0.32725510,0.49088779,-0.81224549
1323445271.70167923,-0.32765430,0.48921055,-0.81263751
1323445271.74965096,-0.32832086,0.48775470,-0.81088024
1323445271.80052733,-0.32865736,0.48921499,-0.81205553
1323445271.84852958,-0.32897946,0.48874873,-0.81321633
1323445271.90445113,-0.32753614,0.48981255,-0.81276274
